Location: Saint-Restitut
(44.3351°N, 4.7915°E)
Time: 02:34:12
(UTC+00:00)

Okean O Rocket - Pass Details

Date: 03 February 2023
Orbit: 620 x 643 km, 98.1° (Epoch: 27 March)

Event Time Altitude Azimuth Distance (km) Brightness Sun altitude
Rises 17:38:34 0° 124° (SE) 2,914 4.6 -8.6°
Reaches altitude 10° 17:41:18 10° 106° (ESE) 2,016 3.7 -9.1°
Maximum altitude 17:44:16 18° 63° (ENE) 1,555 3.0 -9.6°
Drops below altitude 10° 17:47:16 10° 20° (NNE) 2,035 3.9 -10.1°
Sets 17:50:03 0° 2° (N) 2,954 4.9 -10.6°
